239ALFEROV (RS61S)

Last updated on Mon Sep 15 2025 00:03:10 GMT+0000 (Coordinated Universal Time)

1 64881U 25155F 25257.18252019 .00009865 00000+0 42133-3 0 9997 2 64881 97.4206 221.7670 0011448 78.3869 281.8652 15.23019406 38656
UTC large
Height (km)
Speed (km/s)
/
Latitude / Longitude
Inclination (degrees)
Orbital Period (minutes)
Azimuth
Elevation
Range (km)
Doppler Factor

Next 0 passes for location: London (51.5072 / 0.1276)

Sorry there are no passes over London.